Kansas Department of Transportation
RWIS(Road and Runway Information System) Map and Weather Data





Station
Surface
Air
Wind
Site IDSensor TypeLocationTemperature (°F)Temperature (°F)Humidity (%)Speed (mi/h)Gusts (mi/h)DirectionTime
123014AtmosphericBull Creek 684116WSep 29 2016 6:25PM
123014DeckBull Creek73     Sep 29 2016 6:25PM
123014DepartureBull Creek75     Sep 29 2016 6:25PM
123015AtmosphericLeavenworth 684826NNESep 29 2016 6:25PM
123015DeckLeavenworth79     Sep 29 2016 6:25PM
123015DepartureLeavenworth75     Sep 29 2016 6:25PM
123020AtmosphericMayetta 684246NSep 29 2016 6:25PM
123020RoadwayMayetta77     Sep 29 2016 6:25PM
123020DeckMayetta75     Sep 29 2016 6:25PM
505000AtmosphericKTA 1 723914NSep 29 2016 6:10PM
505000ApproachKTA 181     Sep 29 2016 6:10PM
505000DeckKTA 184     Sep 29 2016 6:10PM
505001AtmosphericKTA 2 724325NESep 29 2016 6:10PM
505001ApproachKTA 279     Sep 29 2016 6:10PM
505001DeckKTA 2Unavailable     Sep 29 2016 6:10PM
505002AtmosphericKTA 3 704915NESep 29 2016 6:10PM
505002ApproachKTA 381     Sep 29 2016 6:10PM
505002DeckKTA 381     Sep 29 2016 6:10PM
505003AtmosphericKTA 4 703848NESep 29 2016 6:10PM
505003ApproachKTA 482     Sep 29 2016 6:10PM
505003DeckKTA 481     Sep 29 2016 6:10PM
505004AtmosphericKTA 5 689978NNESep 29 2016 6:10PM
505004RoadwayKTA 582     Sep 29 2016 6:10PM
505004RoadwayKTA 582     Sep 29 2016 6:10PM
505005AtmosphericKTA 6 684246NSep 29 2016 6:10PM
505005Approach KTA 682     Sep 29 2016 6:10PM
505005DeckKTA 679     Sep 29 2016 6:10PM
505006AtmosphericKTA 7 724426NESep 29 2016 6:10PM
505006ApproachKTA 784     Sep 29 2016 6:10PM
505006DeckKTA 781     Sep 29 2016 6:10PM
505007AtmosphericKTA 8 704937NNESep 29 2016 6:10PM
505007ApproachKTA 882     Sep 29 2016 6:10PM
505007DeckKTA 879     Sep 29 2016 6:10PM
505008AtmosphericKTA 9 731026NSep 29 2016 6:10PM
505008ApproachKTA 981     Sep 29 2016 6:10PM
505008DeckKTA 977     Sep 29 2016 6:10PM
505009AtmosphericKTA 10 772346NSep 29 2016 6:10PM
505009ApproachKTA 1079     Sep 29 2016 6:10PM
505009DeckKTA 1081     Sep 29 2016 6:10PM
505010AtmosphericWebb 689536NSep 29 2016 6:25PM
505010DeckWebb77     Sep 29 2016 6:25PM
505010DepartureWebbUnavailable     Sep 29 2016 6:25PM
505014AtmosphericI-135 685247NNESep 29 2016 6:20PM
505014ApproachI-13577     Sep 29 2016 6:20PM
505014DeckI-135Unavailable     Sep 29 2016 6:20PM
540000AtmosphericBlue Rapids 704456NNESep 29 2016 6:25PM
540000DeckBlue Rapids79     Sep 29 2016 6:25PM
540000DepartureBlue RapidsUnavailable     Sep 29 2016 6:25PM
540001AtmosphericSabetha 665103ESESep 29 2016 6:25PM
540001ApproachSabetha82     Sep 29 2016 6:25PM
540001DeckSabetha79     Sep 29 2016 6:25PM
540002AtmosphericWestgate 723924NWSep 29 2016 6:25PM
540002DeckWestgate72     Sep 29 2016 6:25PM
540002DepartureWestgate79     Sep 29 2016 6:25PM
540003AtmosphericEmporia 705413NNESep 29 2016 6:25PM
540003ApproachEmporia84     Sep 29 2016 6:25PM
540003DeckEmporia77     Sep 29 2016 6:25PM
540005AtmosphericLawrence 685014NSep 29 2016 6:25PM
540005DeckLawrenceUnavailable     Sep 29 2016 6:25PM
540006AtmosphericTroy 705314NSep 29 2016 6:25PM
540006DeckTroy79     Sep 29 2016 6:25PM
540006DepartureTroyUnavailable     Sep 29 2016 6:25PM
540007AtmosphericManhattan 685034NESep 29 2016 6:25PM
540007DepartureManhattan79     Sep 29 2016 6:25PM
540007DeckManhattan81     Sep 29 2016 6:25PM
541000AtmosphericElkhart 7535912SSESep 29 2016 6:25PM
541000ApproachElkhartUnavailable     Sep 29 2016 6:25PM
541000DeckElkhartUnavailable     Sep 29 2016 6:25PM
541001AtmosphericSyracuse 7334914SSESep 29 2016 6:25PM
541001DeckSyracuse84     Sep 29 2016 6:25PM
541002AtmosphericLiberal 723326ESESep 29 2016 6:25PM
541002ApproachLiberal91     Sep 29 2016 6:25PM
541002DeckLiberal86     Sep 29 2016 6:25PM
541003AtmosphericFord 722744ESESep 29 2016 6:25PM
541003DeckFord86     Sep 29 2016 6:25PM
541003DepartureFord91     Sep 29 2016 6:25PM
541004AtmosphericScott 731079SESep 29 2016 6:25PM
541004DepartureScott90     Sep 29 2016 6:25PM
541005AtmosphericNess 702746ESESep 29 2016 6:25PM
541005DeckNess86     Sep 29 2016 6:25PM
541005DepartureNess91     Sep 29 2016 6:25PM
541007AtmosphericGarden City 7236712SESep 29 2016 6:25PM
541007ApproachGarden City      Sep 29 2016 6:25PM
541007DeckGarden City84     Sep 29 2016 6:25PM
543000AtmosphericJunction City 704411NESep 29 2016 6:25PM
543000ApproachJunction City79     Sep 29 2016 6:25PM
543000DeckJunction City77     Sep 29 2016 6:25PM
543001AtmosphericEllsworth 663246SSWSep 29 2016 6:25PM
543001RoadwayEllsworth79     Sep 29 2016 6:25PM
543002AtmosphericMcPherson 684846ESep 29 2016 6:25PM
543002ApproachMcPherson81     Sep 29 2016 6:25PM
543002DeckMcPhersonUnavailable     Sep 29 2016 6:25PM
543003AtmosphericSalina 702737ENESep 29 2016 6:15PM
543003DepartureSalina84     Sep 29 2016 6:25PM
543003RoadwaySalina81     Sep 29 2016 6:25PM
543004AtmosphericConcordia 685024ENESep 29 2016 6:25PM
543004ApproachConcordiaUnavailable     Sep 29 2016 6:25PM
543004DeckConcordia82     Sep 29 2016 6:25PM
543005AtmosphericPeabody 644146NESep 29 2016 6:25PM
543005ApproachPeabody84     Sep 29 2016 6:25PM
543005DeckPeabodyUnavailable     Sep 29 2016 6:25PM
560000AtmosphericEdson 7233914SSESep 29 2016 6:25PM
560000RoadwayEdson84     Sep 29 2016 6:25PM
560000RoadwayEdsonUnavailable     Sep 29 2016 6:25PM
560001AtmosphericOakley 703279SESep 29 2016 6:25PM
560001ApproachOakley84     Sep 29 2016 6:25PM
560001DeckOakley82     Sep 29 2016 6:25PM
560002AtmosphericAtwood 7330712SESep 29 2016 6:25PM
560002ApproachAtwood82     Sep 29 2016 6:25PM
560002DeckAtwood88     Sep 29 2016 6:25PM
560003AtmosphericJennings 703524SSep 29 2016 6:25PM
560003ApproachJennings90     Sep 29 2016 6:25PM
560003DeckJennings79     Sep 29 2016 6:25PM
560004AtmosphericWakeeney 723068ESep 29 2016 6:25PM
560004ApproachWakeeney84     Sep 29 2016 6:25PM
560004DeckWakeeney82     Sep 29 2016 6:25PM
560005AtmosphericWalker 681046ESep 29 2016 6:25PM
560005ApproachWalker82     Sep 29 2016 6:25PM
560005DeckWalker82     Sep 29 2016 6:25PM
560006AtmosphericBow Creek(Stockton) 682836ESESep 29 2016 6:25PM
560006ApproachBow Creek(Stockton)86     Sep 29 2016 6:25PM
560006DeckBow Creek(Stockton)81     Sep 29 2016 6:25PM
560007AtmosphericLebanon 665035ESESep 29 2016 6:25PM
560007ApproachLebanon86     Sep 29 2016 6:25PM
560007DeckLebanon82     Sep 29 2016 6:25PM
560008AtmosphericWallace 7317310SSWSep 29 2016 6:25PM
560008ApproachWallace93     Sep 29 2016 6:25PM
560008DeckWallace86     Sep 29 2016 6:25PM
572000AtmosphericGreat Bend 704145ESESep 29 2016 6:25PM
572000ApproachGreat Bend86     Sep 29 2016 6:25PM
572000DeckGreat Bend81     Sep 29 2016 6:25PM
572001AtmosphericPratt 701201ESESep 29 2016 6:25PM
572001ApproachPratt82     Sep 29 2016 6:25PM
572001DeckPratt81     Sep 29 2016 6:25PM
572002AtmosphericAnthony 704847ENESep 29 2016 6:25PM
572002ApproachAnthony88     Sep 29 2016 6:25PM
572002DeckAnthony82     Sep 29 2016 6:25PM
573000AtmosphericEureka 685126NNESep 29 2016 6:25PM
573000DeckEureka86     Sep 29 2016 6:25PM
573000DepartureEureka81     Sep 29 2016 6:25PM
573001AtmosphericGarnett 685246NNESep 29 2016 6:25PM
573001ApproachGarnett79     Sep 29 2016 6:25PM
573001DeckGarnett77     Sep 29 2016 6:25PM
573002AtmosphericCaney 724014WNWSep 29 2016 6:25PM
573002RoadwayCaney81     Sep 29 2016 6:25PM
573003AtmosphericChetopa 685502NSep 29 2016 6:25PM
573003DeckChetopa84     Sep 29 2016 6:25PM
573003DepartureChetopa90     Sep 29 2016 6:25PM
573004AtmosphericChanute 724424NSep 29 2016 6:25PM
573004ApproachChanute84     Sep 29 2016 6:25PM
573004DeckChanute81     Sep 29 2016 6:25PM